Gaylord, MI

5:47 PM EDT on June 22, 2017 (GMT -0400)
Otsego County

Weather History for KGLR - November, 2013

Change the Weather History Date:

Tuesday, November 19, 2013

  Actual Average Record
Temperature  
Mean Temperature 30 °F -  
Max Temperature 33 °F 41 °F 71 °F (1953)
Min Temperature 26 °F 28 °F 10 °F (1951)
Degree Days  
Heating Degree Days 36    
Moisture  
Dew Point 19 °F    
Average Humidity 67    
Maximum Humidity 78    
Minimum Humidity 56    
Precipitation  
Precipitation 0.00 in - - ()
Sea Level Pressure  
Sea Level Pressure 30.30 in    
Wind  
Wind Speed 7 mph (WNW)    
Max Wind Speed 13 mph    
Max Gust Speed 20 mph    
Visibility 10 miles    
Events      
Averages and records for this station are not official NWS values.
T = Trace of Precipitation, MM = Missing Value Source: NWS Daily Summary

Daily Weather History Graph

Daily Weather History Graph

Search for Another Location

Airport or City:

Trip Planner

Search our weather history database for the weather conditions in past years. The results will help you decide how hot, cold, wet, or windy it might be!

Date:

Astronomy

Nov. 19, 2013 Rise Set
Actual Time 7:42 AM EST 5:05 PM EST
Civil Twilight 7:10 AM EST 5:38 PM EST
Nautical Twilight 6:34 AM EST 6:13 PM EST
Astronomical Twilight 5:59 AM EST 6:48 PM EST
Moon 6:55 PM EST (11/19) 9:21 AM EST (11/19)
Length of Visible Light 10h 28m
Length of Day
9h 23m
Waning Gibbous, 96% of the Moon is Illuminated
Nov 19
Waning Gibbous
Nov 25
Last Quarter
Dec 2
New
Dec 9
First Quarter
Dec 17
Full

Hourly Weather History & Observations

Time (EST) Temp. Windchill Dew Point Humidity Pressure Visibility Wind Dir Wind Speed Gust Speed Precip Events Conditions
12:53 AM 28.9 °F 20.4 °F 18.0 °F 64% 30.13 in 10.0 mi WNW 9.2 mph - N/A   Overcast
1:53 AM 28.9 °F 19.8 °F 18.0 °F 64% 30.14 in 10.0 mi WNW 10.4 mph 19.6 mph N/A   Overcast
2:11 AM 28.9 °F 21.1 °F 18.0 °F 64% 30.10 in 10.0 mi WNW 8.1 mph 18.4 mph N/A   Overcast
2:53 AM 28.0 °F 22.8 °F 19.9 °F 72% 30.17 in 10.0 mi Variable 4.6 mph - N/A   Overcast
3:53 AM 27.0 °F 18.0 °F 19.0 °F 72% 30.20 in 10.0 mi NW 9.2 mph 18.4 mph N/A   Overcast
4:53 AM 27.0 °F 17.3 °F 19.0 °F 72% 30.24 in 10.0 mi NW 10.4 mph - N/A   Overcast
5:24 AM 27.0 °F 19.5 °F 18.0 °F 69% 30.19 in 10.0 mi Variable 6.9 mph 19.6 mph N/A   Overcast
5:53 AM 27.0 °F 18.7 °F 17.1 °F 66% 30.26 in 10.0 mi NW 8.1 mph - N/A   Overcast
6:24 AM 27.0 °F 18.0 °F 17.1 °F 66% 30.20 in 10.0 mi WNW 9.2 mph - N/A   Overcast
6:53 AM 27.0 °F 20.5 °F 18.0 °F 69% 30.28 in 10.0 mi Variable 5.8 mph - N/A   Overcast
7:53 AM 27.0 °F 19.5 °F 18.0 °F 69% 30.31 in 10.0 mi NW 6.9 mph - N/A   Overcast
8:53 AM 27.0 °F 17.3 °F 18.0 °F 69% 30.32 in 10.0 mi North 10.4 mph - N/A   Overcast
9:53 AM 28.0 °F 24.2 °F 19.0 °F 69% 30.34 in 10.0 mi Variable 3.5 mph - N/A   Overcast
10:53 AM 28.0 °F 20.8 °F 19.0 °F 69% 30.36 in 10.0 mi WNW 6.9 mph - N/A   Overcast
11:53 AM 28.9 °F 25.2 °F 19.9 °F 69% 30.35 in 10.0 mi Variable 3.5 mph - N/A   Overcast
12:17 PM 30.0 °F 25.2 °F 19.9 °F 66% 30.30 in 10.0 mi NNE 4.6 mph - N/A   Scattered Clouds
12:29 PM 30.0 °F 25.2 °F 19.9 °F 66% 30.30 in 10.0 mi Variable 4.6 mph - N/A   Mostly Cloudy
12:46 PM 30.0 °F 26.5 °F 19.0 °F 64% 30.30 in 10.0 mi NW 3.5 mph - N/A   Scattered Clouds
12:53 PM 30.0 °F 24.1 °F 19.9 °F 66% 30.36 in 10.0 mi West 5.8 mph - N/A   Scattered Clouds
1:15 PM 30.9 °F 26.2 °F 19.9 °F 64% 30.30 in 10.0 mi Variable 4.6 mph - N/A   Mostly Cloudy
1:48 PM 32.0 °F 28.7 °F 19.4 °F 60% 30.29 in 10.0 mi Variable 3.5 mph - N/A   Scattered Clouds
1:53 PM 33.1 °F 30.0 °F 21.0 °F 61% 30.35 in 10.0 mi Variable 3.5 mph - N/A   Partly Cloudy
2:53 PM 32.0 °F 28.7 °F 19.9 °F 61% 30.35 in 10.0 mi WSW 3.5 mph - N/A   Clear
3:53 PM 33.1 °F - 19.0 °F 56% 30.36 in 10.0 mi Calm Calm - N/A   Clear
4:53 PM 32.0 °F - 19.9 °F 61% 30.36 in 10.0 mi Calm Calm - N/A   Clear
5:53 PM 30.0 °F - 19.9 °F 66% 30.37 in 10.0 mi Calm Calm - N/A   Clear
6:53 PM 28.9 °F - 19.9 °F 69% 30.38 in 10.0 mi Calm Calm - N/A   Clear
7:53 PM 28.0 °F 22.8 °F 19.9 °F 72% 30.37 in 10.0 mi SE 4.6 mph - N/A   Clear
8:53 PM 26.1 °F 20.5 °F 19.0 °F 75% 30.37 in 10.0 mi SSE 4.6 mph - N/A   Clear
9:53 PM 27.0 °F 19.5 °F 19.0 °F 72% 30.37 in 10.0 mi SSE 6.9 mph - N/A   Clear
10:53 PM 27.0 °F 17.3 °F 21.0 °F 78% 30.37 in 10.0 mi SSE 10.4 mph - N/A   Clear
11:53 PM 28.0 °F 17.5 °F 21.9 °F 78% 30.37 in 10.0 mi South 12.7 mph - N/A   Clear